TimeEDT,TemperatureF,Dew PointF,Humidity,Sea Level PressureIn,VisibilityMPH,Wind Direction,Wind SpeedMPH,Gust SpeedMPH,PrecipitationIn,Events,Conditions,WindDirDegrees,DateUTC
12:09 AM,55.4,55.4,100,30.09,1.2,ENE,5.8,-,N/A,,Partly Cloudy,70,2013-10-06 04:09:00
12:13 AM,57.2,55.4,94,30.10,3.0,ENE,4.6,-,N/A,,Partly Cloudy,70,2013-10-06 04:13:00
12:35 AM,55.4,55.4,100,30.11,1.8,NE,3.5,-,N/A,,Clear,50,2013-10-06 04:35:00
12:50 AM,55.4,55.4,100,30.11,3.0,ENE,3.5,-,N/A,,Clear,60,2013-10-06 04:50:00
12:53 AM,55.0,55.0,100,30.12,5.0,NE,3.5,-,N/A,,Clear,50,2013-10-06 04:53:00
12:59 AM,55.4,55.4,100,30.12,1.5,NNE,3.5,-,N/A,,Clear,30,2013-10-06 04:59:00
1:05 AM,55.4,55.4,100,30.12,0.8,NNE,3.5,-,N/A,,Mist,30,2013-10-06 05:05:00
1:10 AM,55.4,55.4,100,30.12,1.2,NNE,4.6,-,N/A,,Partly Cloudy,20,2013-10-06 05:10:00
1:15 AM,55.4,55.4,100,30.12,3.0,North,5.8,-,N/A,,Partly Cloudy,10,2013-10-06 05:15:00
1:29 AM,55.4,53.6,94,30.13,1.8,NNE,3.5,-,N/A,,Partly Cloudy,20,2013-10-06 05:29:00
1:34 AM,55.4,55.4,100,30.13,0.8,NNE,3.5,-,N/A,,Mist,30,2013-10-06 05:34:00
1:41 AM,55.4,55.4,100,30.12,1.2,NE,3.5,-,N/A,,Partly Cloudy,40,2013-10-06 05:41:00
1:45 AM,55.4,55.4,100,30.12,3.0,NE,3.5,-,N/A,,Partly Cloudy,50,2013-10-06 05:45:00
1:53 AM,55.9,55.9,100,30.12,4.0,Calm,Calm,-,N/A,,Partly Cloudy,0,2013-10-06 05:53:00
1:57 AM,55.4,55.4,100,30.12,1.0,Calm,Calm,-,N/A,,Mist,0,2013-10-06 05:57:00
1:59 AM,55.4,55.4,100,30.13,0.8,Calm,Calm,-,N/A,,Clear,0,2013-10-06 05:59:00
2:30 AM,53.6,53.6,100,30.11,0.8,ENE,3.5,-,N/A,,Mist,70,2013-10-06 06:30:00
2:33 AM,55.4,53.6,94,30.11,1.5,ENE,3.5,-,N/A,,Partly Cloudy,70,2013-10-06 06:33:00
2:35 AM,55.4,53.6,94,30.11,3.0,East,3.5,-,N/A,,Partly Cloudy,80,2013-10-06 06:35:00
2:39 AM,53.6,53.6,100,30.11,1.5,Calm,Calm,-,N/A,,Partly Cloudy,0,2013-10-06 06:39:00
2:42 AM,53.6,53.6,100,30.11,0.8,East,3.5,-,N/A,,Mist,90,2013-10-06 06:42:00
2:51 AM,55.4,55.4,100,30.11,0.5,Calm,Calm,-,N/A,Fog,Fog,0,2013-10-06 06:51:00
2:53 AM,55.0,55.0,100,30.11,0.5,Calm,Calm,-,N/A,Fog,Fog,0,2013-10-06 06:53:00
3:53 AM,54.0,54.0,100,30.12,0.5,NE,4.6,-,N/A,Fog,Fog,40,2013-10-06 07:53:00
4:06 AM,53.6,53.6,100,30.11,0.2,NE,3.5,-,N/A,Fog,Fog,50,2013-10-06 08:06:00
4:12 AM,53.6,53.6,100,30.11,0.2,ENE,4.6,-,N/A,Fog,Fog,60,2013-10-06 08:12:00
4:19 AM,55.4,55.4,100,30.11,0.5,NE,4.6,-,N/A,Fog,Fog,50,2013-10-06 08:19:00
4:27 AM,55.4,55.4,100,30.11,0.2,NE,4.6,-,N/A,Fog,Fog,50,2013-10-06 08:27:00
4:53 AM,55.9,55.9,100,30.12,0.2,ENE,3.5,-,N/A,Fog,Fog,60,2013-10-06 08:53:00
5:09 AM,57.2,55.4,94,30.12,0.5,ENE,4.6,-,N/A,Fog,Fog,60,2013-10-06 09:09:00
5:22 AM,57.2,57.2,100,30.12,1.2,ENE,6.9,-,N/A,,Overcast,70,2013-10-06 09:22:00
5:43 AM,57.2,57.2,100,30.13,3.0,NE,5.8,-,N/A,,Overcast,50,2013-10-06 09:43:00
5:53 AM,57.9,57.9,100,30.13,5.0,NE,4.6,-,N/A,,Overcast,40,2013-10-06 09:53:00
6:28 AM,57.2,57.2,100,30.13,7.0,East,3.5,-,N/A,,Overcast,80,2013-10-06 10:28:00
6:53 AM,57.9,57.9,100,30.14,10.0,East,6.9,-,N/A,,Overcast,80,2013-10-06 10:53:00
7:53 AM,59.0,57.0,93,30.16,10.0,NE,6.9,-,N/A,,Overcast,50,2013-10-06 11:53:00
8:53 AM,62.1,55.9,80,30.17,10.0,East,9.2,-,N/A,,Mostly Cloudy,80,2013-10-06 12:53:00
9:53 AM,63.0,55.9,78,30.18,10.0,East,10.4,-,N/A,,Overcast,90,2013-10-06 13:53:00
10:53 AM,63.0,55.0,75,30.18,10.0,ESE,12.7,-,N/A,,Overcast,120,2013-10-06 14:53:00
11:53 AM,64.0,55.9,75,30.19,10.0,East,12.7,-,N/A,,Overcast,100,2013-10-06 15:53:00
12:53 PM,64.0,54.0,70,30.19,10.0,East,13.8,-,N/A,,Overcast,100,2013-10-06 16:53:00
1:00 PM,64.4,53.6,68,30.18,10.0,ESE,12.7,-,N/A,,Overcast,110,2013-10-06 17:00:00
1:53 PM,63.0,51.1,65,30.17,10.0,East,10.4,-,N/A,,Overcast,90,2013-10-06 17:53:00
2:00 PM,62.6,51.8,68,30.18,10.0,East,11.5,-,N/A,,Overcast,100,2013-10-06 18:00:00
2:53 PM,63.0,52.0,67,30.17,10.0,East,11.5,19.6,N/A,,Overcast,90,2013-10-06 18:53:00
3:53 PM,61.0,52.0,72,30.17,10.0,East,13.8,20.7,0.00,,Overcast,90,2013-10-06 19:53:00
4:53 PM,61.0,52.0,72,30.17,10.0,East,11.5,-,N/A,,Overcast,80,2013-10-06 20:53:00
5:40 PM,60.8,53.6,77,30.16,10.0,East,16.1,23.0,N/A,,Overcast,100,2013-10-06 21:40:00
5:53 PM,60.1,54.0,80,30.17,10.0,East,13.8,20.7,N/A,,Overcast,100,2013-10-06 21:53:00
6:05 PM,60.8,55.4,82,30.16,10.0,East,15.0,25.3,N/A,,Overcast,100,2013-10-06 22:05:00
6:37 PM,60.8,55.4,82,30.16,10.0,East,16.1,-,N/A,,Overcast,100,2013-10-06 22:37:00
6:53 PM,61.0,55.9,83,30.17,10.0,East,15.0,21.9,N/A,,Overcast,100,2013-10-06 22:53:00
7:53 PM,61.0,55.9,83,30.17,10.0,ESE,12.7,-,N/A,,Overcast,110,2013-10-06 23:53:00
8:53 PM,61.0,57.0,87,30.16,10.0,ESE,15.0,-,N/A,,Overcast,110,2013-10-07 00:53:00
9:53 PM,62.1,57.9,86,30.16,10.0,ESE,13.8,-,N/A,,Overcast,110,2013-10-07 01:53:00
10:53 PM,62.1,59.0,90,30.15,10.0,SE,15.0,-,N/A,,Overcast,130,2013-10-07 02:53:00
11:44 PM,62.6,59.0,88,30.13,10.0,SE,12.7,-,N/A,,Overcast,130,2013-10-07 03:44:00
11:53 PM,63.0,59.0,87,30.13,10.0,SE,13.8,-,N/A,,Overcast,130,2013-10-07 03:53:00